Regional Weather Roundup
Issued by NWS

Home | Current Version | Previous Version | Text Only | Print | Product List | Glossary Off
Versions: 1 2 3 4 5 6 7 8 9 10 11 12 13 14 15 16 17 18 19 20 21 22 23 24 25 26 27 28 29 30 31 32 33 34 35 36 37 38 39 40 41 42 43 44 45 46 47 48 49 50

000
ASUS45 KBOU 261507
RWRCO

WEATHER ROUNDUP FOR COLORADO
NATIONAL WEATHER SERVICE DENVER/BOULDER CO
800 AM MST WED NOV 26 2014

NOTE: "FAIR" INDICATES FEW OR NO CLOUDS BELOW 12000 FEET WITH NO
SIGNIFICANT WEATHER AND/OR OBSTRUCTIONS TO VISIBILITY.

COZ001>005-013-030-031-261600-
...NORTHWEST COLORADO...

CITY           SKY/WX    TMP DP  RH WIND       PRES   REMARKS
CRAIG          MOCLDY    27  24  89 CALM      30.29R
HAYDEN         CLOUDY    30  25  80 W5        30.28R WCI  25
MEEKER         PTCLDY    27  20  75 CALM      30.32R
MOUNT WERNER   NOT AVBL
STEAMBOAT SPGS CLOUDY    32  30  91 CALM      30.28R
WALDEN         CLOUDY    34  27  75 W25G36    30.17R WCI  21
$$

COZ006>008-011-261600-
...WEST CENTRAL VALLEYS...

CITY           SKY/WX    TMP DP  RH WIND       PRES   REMARKS
GRAND JUNCTION PTCLDY    26  20  77 E3        30.39R
MONTROSE       PTCLDY    27  20  75 SE6       30.39R WCI  20
EAGLE          CLOUDY    36  25  64 CALM      30.35R
RIFLE          PTCLDY    22  18  85 CALM      30.39R
DELTA          PTCLDY    33  26  76 CALM      30.39R
NUCLA          PTCLDY    32  25  74 CALM      30.44R
$$

COZ017>023-064>068-261600-
...SOUTHWEST COLORADO...

CITY           SKY/WX    TMP DP  RH WIND       PRES   REMARKS
DURANGO        CLEAR     22  12  65 NE5       30.35R WCI  16
CORTEZ         CLEAR     25  18  74 NE6       30.39R WCI  18
PAGOSA SPRINGS CLEAR     20  13  76 CALM      30.36R
TELLURIDE      NOT AVBL
WOLF CREEK PAS CLEAR     21  18  86 MISG      30.37R
$$

COZ009-010-012-014-032>034-037-058>063-261600-
...CENTRAL COLORADO...

CITY           SKY/WX    TMP DP  RH WIND       PRES   REMARKS
ASPEN          CLOUDY    28  23  81 SE3       30.35R
BUENA VISTA    MOCLDY    39  22  50 S3        30.20R
COPPER MTN     CLOUDY    25  19  80 W44G54    30.27R WCI   5
BERTHOUD PASS  NOT AVBL
COTTONWOOD PAS CLOUDY    34  21  60 W30G43    30.19R WCI  20
GUNNISON       PTCLDY    28  21  74 N7        30.37S WCI  21
KREMMLING      CLOUDY    34  28  80 SW16G23   30.28R WCI  23
LEADVILLE      CLOUDY    26  22  84 NW12G20   30.30R WCI  16
MONARCH PASS   CLOUDY    21  18  86 MISG      30.35R
SALIDA         MOCLDY    44  24  45 SW20G32   30.27R
SUNLIGHT       CLOUDY   N/A N/A N/A CALM      30.37R
WILKERSON PASS PTCLDY    25  19  80 NW10G26   30.24R WCI  15
$$

COZ069>075-261600-
...SAN LUIS VALLEY/SANGRE DE CRISTO MOUNTAINS...

CITY           SKY/WX    TMP DP  RH WIND       PRES   REMARKS
ALAMOSA        MOSUNNY   17   9  70 S7        30.31R WCI   8
LA VETA PASS   NOT AVBL
SAGUACHE       NOT AVBL
$$

COZ035-036-038>040-261600-
...NORTHERN COLORADO FRONT RANGE...

CITY           SKY/WX    TMP DP  RH WIND       PRES   REMARKS
DENVER INTL AP MOCLDY    27  21  78 S6        30.20S WCI  20
DMNS CITY PARK   N/A     29  20  69 SE8       30.20S WCI  21
AURORA         MOCLDY    26  20  76 SE6       30.20S WCI  19
FRONT RANGE AP NOT AVBL
ERIE MUNI ARPT PTCLDY    30  24  77 S6        30.20S WCI  24
BOULDER MUN AP CLOUDY    32  23  69 SE6       30.20R WCI  26
CENTENNIAL     MOCLDY    26  19  74 SE9       30.20S WCI  17
BROOMFIELD     NOT AVBL
FORT COLLINS   CLOUDY    28  21  74 S12       30.19F WCI  18
LONGMONT       MOCLDY    32  25  75 S7        30.22F WCI  25
$$

COZ041-046-047-076>085-087-088-261600-
...PIKES PEAK/PALMER DIVIDE AND SOUTHERN FOOTHILLS...

CITY           SKY/WX    TMP DP  RH WIND       PRES   REMARKS
COLO. SPRINGS  CLOUDY    27  24  89 SE8       30.22R WCI  19
A. F. ACADEMY  CLOUDY    26  22  85 N3        30.20R
ELLICOTT       NOT AVBL
FALCON         NOT AVBL
FORT CARSON    CLOUDY    29  25  85 SE10      30.20R WCI  19
LIMON          PTSUNNY   24  20  84 NW12      30.22R WCI  13
MONUMENT HILL  PTCLDY    21  19  93 S5        30.16S WCI  15
TRINIDAD       MOSUNNY   28  25  88 S3        30.24R
$$

COZ042>045-048>051-090-091-261600-
...NORTHEAST COLORADO...

CITY           SKY/WX    TMP DP  RH WIND       PRES   REMARKS
GREELEY ARPT   CLOUDY    30  19  64 CALM      30.22R
AKRON          CLOUDY    26  25  96 NW8       30.19S WCI  18
BURLINGTON     CLOUDY    29  26  89 NW17      30.22R WCI  17
WRAY           CLOUDY    32  29  90 NW14      30.22R WCI  22
STERLING       LGT SNOW  32  30  93 NW6       30.21R WCI  26
HOLYOKE        LGT SNOW  34  30  86 NW13      30.23R WCI  25
FORT MORGAN    CLOUDY    28  25  91 W6        30.22S WCI  21
$$

COZ086-089-092>099-261600-
...SOUTHEAST COLORADO...

CITY           SKY/WX    TMP DP  RH WIND       PRES   REMARKS
PUEBLO         CLOUDY    28  24  85 CALM      30.24S
LA JUNTA       MOSUNNY   32  27  81 W6        30.27R WCI  26
LAMAR          CLOUDY    29  25  85 W8        30.26R WCI  21
SPRINGFIELD      N/A     31  26  82 NW8       30.26R WCI  23
$$



USA.gov is the U.S. government's official web portal to all federal, state and local government web resources and services.